#timestamp,LO_Frequency,Hit 
1501984815.6,286047018.4,N
1501984835.4,286047017.7,N
1501984855.2,286047017.4,N
1501984875.0,286047018.6,N
1501984875.9,286047018.6,N
1501984895.8,286047018.4,N
1501984915.6,286047017.6,N
1501984935.4,286047018.6,N
1501984955.3,286047017.9,N
1501984975.1,286047016.3,N
1501984976.0,286047016.3,N
1501984995.8,286047018.8,N
1501985015.7,286047018.2,N
1501985035.5,286047018.4,N
1501985055.3,286047017.3,N
1501985075.2,286047018.0,N
1501985095.9,286047016.4,N
1501985115.7,286047016.0,N
1501985135.6,286047016.7,N
1501985155.4,286047016.6,N
1501985175.2,286047017.2,N
1501985195.0,286047014.3,N
1501985195.9,286047014.3,N
1501985215.8,286047015.9,N
1501985235.6,286047018.6,N
1501985255.4,286047018.6,N
1501985275.3,286047018.2,N
1501985295.2,286047017.5,N
1501985315.0,286047020.0,N
1501985316.0,286047020.0,N
1501985335.8,286047019.9,N
1501985355.6,286047022.0,N
1501985375.4,286047019.0,N
1501985395.3,286047020.4,N
1501985415.1,286047017.4,N
1501985435.8,286047021.4,N
1501985455.7,286047024.5,N
1501985475.5,286047028.3,N
1501985495.3,286047029.9,N
1501985515.2,286047029.5,N
1501985535.9,286047027.7,N
1501985555.7,286047028.3,N
1501985575.6,286047026.0,N
1501985595.4,286047024.2,N
1501985615.2,286047023.9,N
1501985635.0,286047026.7,N
1501985636.0,286047026.7,N
1501985655.8,286047024.5,N
1501985675.6,286047024.1,N
1501985695.4,286047026.7,N
1501985715.3,286047024.1,N
1501985735.1,286047024.9,N
1501985755.8,286047025.1,N
1501985775.7,286047022.4,N
1501985795.5,286047024.7,N
1501985815.3,286047024.3,N
1501985835.2,286047023.4,N
1501985855.9,286047023.5,N
1501985875.7,286047023.1,N
1501985895.6,286047023.4,N
1501985915.4,286047020.6,N
1501985935.2,286047020.5,N
1501985955.0,286047021.8,N
1501985955.9,286047021.8,N
1501985975.8,286047021.3,N
1501985995.6,286047021.9,N
1501986015.4,286047023.2,N
1501986035.3,286047024.8,N
1501986055.1,286047027.6,N
1501986056.0,286047027.6,N
1501986075.8,286047031.4,N
1501986095.7,286047029.1,N
1501986115.5,286047031.6,N
1501986135.2,286047027.2,N
1501986155.0,286047027.6,N
1501986156.0,286047027.6,N
1501986175.8,286047028.3,N
1501986195.6,286047025.3,N
1501986215.4,286047025.3,N
1501986235.3,286047025.4,N
1501986255.1,286047024.2,N
1501986275.8,286047027.6,N
1501986295.7,286047028.1,N
1501986315.5,286047026.0,N
1501986335.3,286047025.3,N
1501986355.2,286047025.7,N
1501986375.9,286047027.9,N
1501986395.7,286047027.3,N
1501986415.6,286047028.3,N
1501986435.4,286047028.2,N
1501986455.2,286047027.4,N
1501986475.0,286047027.1,N
1501986476.0,286047027.1,N
1501986495.8,286047028.0,N
1501986515.6,286047027.7,N
1501986535.4,286047029.8,N
1501986555.3,286047026.9,N
1501986575.1,286047026.9,N
1501986595.8,286047027.6,N
1501986615.7,286047027.7,N
1501986635.5,286047029.6,N
1501986655.3,286047028.8,N
1501986675.2,286047028.5,N
1501986695.9,286047031.5,N
1501986715.7,286047028.8,N
1501986735.6,286047029.2,N
1501986755.4,286047031.0,N
1501986775.2,286047030.6,N
1501986795.0,286047031.0,N
1501986795.9,286047031.0,N
1501986815.8,286047030.3,N
1501986835.6,286047030.8,N
1501986855.4,286047028.5,N
1501986875.3,286047029.9,N
1501986895.1,286047029.4,N
1501986915.8,286047028.7,N
1501986935.7,286047028.5,N
1501986955.5,286047029.2,N
1501986975.3,286047028.9,N
1501986995.2,286047030.0,N
1501987015.9,286047028.8,N
1501987035.5,286047028.8,N
1501987055.3,286047031.3,N
1501987075.1,286047033.2,N
1501987095.9,286047033.1,N
1501987115.7,286047032.9,N
1501987135.5,286047032.0,N
1501987155.4,286047032.9,N
1501987175.2,286047030.4,N
1501987195.0,286047032.7,N
1501987195.9,286047032.7,N
1501987215.8,286047032.7,N
1501987235.6,286047033.1,N
1501987255.4,286047034.4,N
1501987275.3,286047031.7,N
1501987295.1,286047031.9,N
1501987296.0,286047031.9,N
1501987315.8,286047032.7,N
1501987335.7,286047032.5,N
1501987355.5,286047034.8,N
1501987375.3,286047031.9,N
1501987395.1,286047032.3,N
1501987415.9,286047032.2,N
1501987435.7,286047031.9,N
1501987455.5,286047032.7,N
1501987475.4,286047032.3,N
1501987495.2,286047030.2,N
1501987515.0,286047031.4,N
1501987515.9,286047031.4,N
1501987535.8,286047030.1,N
1501987555.6,286047032.3,N
1501987575.4,286047032.1,N
1501987595.3,286047033.8,N
1501987615.1,286047037.4,N
1501987616.0,286047037.4,N
1501987635.8,286047035.6,N
1501987655.6,286047034.9,N
1501987675.5,286047038.0,N
1501987695.3,286047036.7,N
1501987715.1,286047037.8,N
1501987735.9,286047036.4,N
1501987755.7,286047034.0,N
1501987775.5,286047033.5,N
1501987795.4,286047034.5,N
1501987815.2,286047033.3,N
1501987835.0,286047034.4,N
1501987835.9,286047034.4,N
1501987855.8,286047032.9,N
1501987875.6,286047031.9,N
1501987895.4,286047033.8,N
1501987915.3,286047036.1,N
1501987935.1,286047033.6,N
1501987936.0,286047033.6,N
1501987955.8,286047033.6,N
1501987975.6,286047033.6,N
1501987995.5,286047034.5,N
1501988015.3,286047033.9,N
1501988035.1,286047034.4,N
1501988055.9,286047036.3,N
1501988075.7,286047036.2,N
1501988095.5,286047037.5,N
1501988115.4,286047037.7,N
1501988135.2,286047038.0,N
1501988155.0,286047037.5,N
1501988155.9,286047037.5,N
1501988175.8,286047036.6,N
1501988195.6,286047036.6,N
1501988215.4,286047037.4,N
1501988235.2,286047037.7,N
1501988255.1,286047035.7,N
1501988256.0,286047035.7,N
1501988275.8,286047035.6,N
1501988295.8,286047035.8,N
1501988315.7,286047035.3,N
1501988335.5,286047033.6,N
1501988355.3,286047035.8,N
1501988375.2,286047038.0,N
1501988395.9,286047039.1,N
